Location: Córrego Montividiu
(13.2496°S, 48.8603°W)
Time: 08:24:47
(UTC+00:00)

Resurs 01 Rocket - Visible Passes

Search period start: 09 June 2026 00:00
Search period end: 19 June 2026 00:00
Orbit: 627 x 635 km, 97.7° (Epoch: 8 June)

Date Brightness Start Highest point End Pass type
(mag) Time Alt. Az. Time Alt. Az. Time Alt. Az.
9 Jun 3.0 23:08:50 35° W 23:08:50 35° W 23:12:20 10° NW visible
10 Jun 3.0 21:52:15 19° E 21:52:43 19° E 21:55:48 10° NE visible
10 Jun 4.1 23:29:38 19° W 23:29:38 19° W 23:31:58 10° WNW visible
11 Jun 2.1 22:13:03 35° E 22:13:21 36° E 22:17:21 10° NNE visible
12 Jun 1.4 22:33:52 72° E 22:33:56 72° E 22:38:18 10° N visible
13 Jun 2.1 22:54:40 57° W 22:54:40 57° W 22:58:48 10° NNW visible
14 Jun 3.4 21:38:05 12° E 21:38:51 12° E 21:40:39 10° ENE visible
14 Jun 3.4 23:15:29 29° W 23:15:29 29° W 23:18:50 10° NW visible
15 Jun 2.7 21:58:54 23° E 21:59:29 24° E 22:03:00 10° NNE visible
15 Jun 4.3 23:36:16 15° W 23:36:16 15° W 23:38:10 10° WNW visible
16 Jun 1.8 22:19:41 44° E 22:20:06 45° E 22:24:17 10° N visible
17 Jun 1.4 22:40:29 82° S 22:40:41 89° WSW 22:45:03 10° NNW visible
18 Jun 2.5 23:01:17 45° W 23:01:17 45° W 23:05:25 10° NNW visible
